owner,sensor,date,latitude,longitude,relative_humidity,qcFlag 
DISL,ioos:station:DISL:KATA:1,2014-11-01T00:00:00Z,30.2583,-88.2131,51.2,1111122 
DISL,ioos:station:DISL:KATA:1,2014-11-01T00:30:00Z,30.2583,-88.2131,57.52,1111122 
DISL,ioos:station:DISL:KATA:1,2014-11-01T01:00:00Z,30.2583,-88.2131,53.75,1111122 
DISL,ioos:station:DISL:KATA:1,2014-11-01T01:30:00Z,30.2583,-88.2131,60.06,1111122 
DISL,ioos:station:DISL:KATA:1,2014-11-01T02:00:00Z,30.2583,-88.2131,58.77,1111122 
DISL,ioos:station:DISL:KATA:1,2014-11-01T02:30:00Z,30.2583,-88.2131,59.82,1111122 
DISL,ioos:station:DISL:KATA:1,2014-11-01T03:00:00Z,30.2583,-88.2131,64.89,1111122 
DISL,ioos:station:DISL:KATA:1,2014-11-01T03:30:00Z,30.2583,-88.2131,68.35,1111122 
DISL,ioos:station:DISL:KATA:1,2014-11-01T04:00:00Z,30.2583,-88.2131,64.19,1111122 
DISL,ioos:station:DISL:KATA:1,2014-11-01T04:30:00Z,30.2583,-88.2131,63.78,1111122 
DISL,ioos:station:DISL:KATA:1,2014-11-01T05:00:00Z,30.2583,-88.2131,62.93,1111122 
DISL,ioos:station:DISL:KATA:1,2014-11-01T05:30:00Z,30.2583,-88.2131,48.23,1111122 
DISL,ioos:station:DISL:KATA:1,2014-11-01T06:00:00Z,30.2583,-88.2131,55.3,1111122 
DISL,ioos:station:DISL:KATA:1,2014-11-01T06:30:00Z,30.2583,-88.2131,55.3,1111122 
DISL,ioos:station:DISL:KATA:1,2014-11-01T07:00:00Z,30.2583,-88.2131,54.59,1111122 
DISL,ioos:station:DISL:KATA:1,2014-11-01T07:30:00Z,30.2583,-88.2131,54.53,1111122 
DISL,ioos:station:DISL:KATA:1,2014-11-01T08:00:00Z,30.2583,-88.2131,55.82,1111122 
DISL,ioos:station:DISL:KATA:1,2014-11-01T08:30:00Z,30.2583,-88.2131,46.73,1111122 
DISL,ioos:station:DISL:KATA:1,2014-11-01T09:00:00Z,30.2583,-88.2131,64.13,1111122 
DISL,ioos:station:DISL:KATA:1,2014-11-01T09:30:00Z,30.2583,-88.2131,50.2,1111122 
DISL,ioos:station:DISL:KATA:1,2014-11-01T10:00:00Z,30.2583,-88.2131,64.37,1111122 
DISL,ioos:station:DISL:KATA:1,2014-11-01T10:30:00Z,30.2583,-88.2131,56.5,1111122 
DISL,ioos:station:DISL:KATA:1,2014-11-01T11:00:00Z,30.2583,-88.2131,57.07,1111122 
DISL,ioos:station:DISL:KATA:1,2014-11-01T11:30:00Z,30.2583,-88.2131,59.01,1111122 
DISL,ioos:station:DISL:KATA:1,2014-11-01T12:00:00Z,30.2583,-88.2131,62.08,1111122 
DISL,ioos:station:DISL:KATA:1,2014-11-01T12:30:00Z,30.2583,-88.2131,58.72,1111122 
DISL,ioos:station:DISL:KATA:1,2014-11-01T13:00:00Z,30.2583,-88.2131,56.88,1111122 
DISL,ioos:station:DISL:KATA:1,2014-11-01T13:30:00Z,30.2583,-88.2131,60.27,1111122 
DISL,ioos:station:DISL:KATA:1,2014-11-01T14:00:00Z,30.2583,-88.2131,51.16,1111122 
DISL,ioos:station:DISL:KATA:1,2014-11-01T14:30:00Z,30.2583,-88.2131,59.55,1111122 
DISL,ioos:station:DISL:KATA:1,2014-11-01T15:00:00Z,30.2583,-88.2131,55.94,1111122 
DISL,ioos:station:DISL:KATA:1,2014-11-01T15:30:00Z,30.2583,-88.2131,48.54,1111122 
DISL,ioos:station:DISL:KATA:1,2014-11-01T16:00:00Z,30.2583,-88.2131,46.33,1111122 
DISL,ioos:station:DISL:KATA:1,2014-11-01T16:30:00Z,30.2583,-88.2131,47.88,1111122 
DISL,ioos:station:DISL:KATA:1,2014-11-01T17:00:00Z,30.2583,-88.2131,32.73,1111122 
DISL,ioos:station:DISL:KATA:1,2014-11-01T17:30:00Z,30.2583,-88.2131,37.25,1111122 
DISL,ioos:station:DISL:KATA:1,2014-11-01T18:00:00Z,30.2583,-88.2131,32.67,1111122 
DISL,ioos:station:DISL:KATA:1,2014-11-01T18:30:00Z,30.2583,-88.2131,38.61,1111122 
DISL,ioos:station:DISL:KATA:1,2014-11-01T19:00:00Z,30.2583,-88.2131,32.19,1111122 
DISL,ioos:station:DISL:KATA:1,2014-11-01T19:30:00Z,30.2583,-88.2131,33.99,1111122 
DISL,ioos:station:DISL:KATA:1,2014-11-01T20:00:00Z,30.2583,-88.2131,29.54,1111122 
DISL,ioos:station:DISL:KATA:1,2014-11-01T20:30:00Z,30.2583,-88.2131,25.73,1111122 
DISL,ioos:station:DISL:KATA:1,2014-11-01T21:00:00Z,30.2583,-88.2131,33.78,1111122 
DISL,ioos:station:DISL:KATA:1,2014-11-01T21:30:00Z,30.2583,-88.2131,26.85,1111122 
DISL,ioos:station:DISL:KATA:1,2014-11-01T22:00:00Z,30.2583,-88.2131,28.55,1111122 
DISL,ioos:station:DISL:KATA:1,2014-11-01T22:30:00Z,30.2583,-88.2131,28.68,1111122 
DISL,ioos:station:DISL:KATA:1,2014-11-01T23:00:00Z,30.2583,-88.2131,30.31,1111122 
DISL,ioos:station:DISL:KATA:1,2014-11-01T23:30:00Z,30.2583,-88.2131,36.59,1111122 
DISL,ioos:station:DISL:KATA:1,2014-11-02T00:00:00Z,30.2583,-88.2131,38.7,1111122 
DISL,ioos:station:DISL:KATA:1,2014-11-02T00:30:00Z,30.2583,-88.2131,37.79,1111122 
DISL,ioos:station:DISL:KATA:1,2014-11-02T01:00:00Z,30.2583,-88.2131,40.0,1111122 
DISL,ioos:station:DISL:KATA:1,2014-11-02T01:30:00Z,30.2583,-88.2131,35.01,1111122 
DISL,ioos:station:DISL:KATA:1,2014-11-02T02:00:00Z,30.2583,-88.2131,37.59,1111122 
DISL,ioos:station:DISL:KATA:1,2014-11-02T02:30:00Z,30.2583,-88.2131,42.48,1111122 
DISL,ioos:station:DISL:KATA:1,2014-11-02T03:00:00Z,30.2583,-88.2131,44.48,1111122 
DISL,ioos:station:DISL:KATA:1,2014-11-02T03:30:00Z,30.2583,-88.2131,52.87,1111122 
DISL,ioos:station:DISL:KATA:1,2014-11-02T04:00:00Z,30.2583,-88.2131,51.72,1111122 
DISL,ioos:station:DISL:KATA:1,2014-11-02T04:30:00Z,30.2583,-88.2131,49.59,1111122 
DISL,ioos:station:DISL:KATA:1,2014-11-02T05:00:00Z,30.2583,-88.2131,58.42,1111122 
DISL,ioos:station:DISL:KATA:1,2014-11-02T05:30:00Z,30.2583,-88.2131,57.2,1111122 
DISL,ioos:station:DISL:KATA:1,2014-11-02T06:00:00Z,30.2583,-88.2131,56.73,1111122 
DISL,ioos:station:DISL:KATA:1,2014-11-02T06:30:00Z,30.2583,-88.2131,60.19,1111122 
DISL,ioos:station:DISL:KATA:1,2014-11-02T07:00:00Z,30.2583,-88.2131,64.2,1111122 
DISL,ioos:station:DISL:KATA:1,2014-11-02T07:30:00Z,30.2583,-88.2131,62.09,1111122 
DISL,ioos:station:DISL:KATA:1,2014-11-02T08:00:00Z,30.2583,-88.2131,64.27,1111122 
DISL,ioos:station:DISL:KATA:1,2014-11-02T08:30:00Z,30.2583,-88.2131,67.22,1111122 
DISL,ioos:station:DISL:KATA:1,2014-11-02T09:00:00Z,30.2583,-88.2131,67.94,1111122 
DISL,ioos:station:DISL:KATA:1,2014-11-02T09:30:00Z,30.2583,-88.2131,69.87,1111122 
DISL,ioos:station:DISL:KATA:1,2014-11-02T10:00:00Z,30.2583,-88.2131,70.35,1111122 
DISL,ioos:station:DISL:KATA:1,2014-11-02T10:30:00Z,30.2583,-88.2131,68.31,1111122 
DISL,ioos:station:DISL:KATA:1,2014-11-02T11:00:00Z,30.2583,-88.2131,71.09,1111122 
DISL,ioos:station:DISL:KATA:1,2014-11-02T11:30:00Z,30.2583,-88.2131,75.48,1111122 
DISL,ioos:station:DISL:KATA:1,2014-11-02T12:00:00Z,30.2583,-88.2131,77.96,1111122 
DISL,ioos:station:DISL:KATA:1,2014-11-02T12:30:00Z,30.2583,-88.2131,77.22,1111122 
DISL,ioos:station:DISL:KATA:1,2014-11-02T13:00:00Z,30.2583,-88.2131,75.34,1111122 
DISL,ioos:station:DISL:KATA:1,2014-11-02T13:30:00Z,30.2583,-88.2131,75.82,1111122 
DISL,ioos:station:DISL:KATA:1,2014-11-02T14:00:00Z,30.2583,-88.2131,74.29,1111122 
DISL,ioos:station:DISL:KATA:1,2014-11-02T14:30:00Z,30.2583,-88.2131,70.37,1111122 
DISL,ioos:station:DISL:KATA:1,2014-11-02T15:00:00Z,30.2583,-88.2131,62.38,1111122 
DISL,ioos:station:DISL:KATA:1,2014-11-02T15:30:00Z,30.2583,-88.2131,63.74,1111122 
DISL,ioos:station:DISL:KATA:1,2014-11-02T16:00:00Z,30.2583,-88.2131,60.85,1111122 
DISL,ioos:station:DISL:KATA:1,2014-11-02T16:30:00Z,30.2583,-88.2131,56.97,1111122 
DISL,ioos:station:DISL:KATA:1,2014-11-02T17:00:00Z,30.2583,-88.2131,55.74,1111122 
DISL,ioos:station:DISL:KATA:1,2014-11-02T17:30:00Z,30.2583,-88.2131,45.96,1111122 
DISL,ioos:station:DISL:KATA:1,2014-11-02T18:00:00Z,30.2583,-88.2131,43.58,1111122 
DISL,ioos:station:DISL:KATA:1,2014-11-02T18:30:00Z,30.2583,-88.2131,42.87,1111122 
DISL,ioos:station:DISL:KATA:1,2014-11-02T19:00:00Z,30.2583,-88.2131,53.97,1111122 
DISL,ioos:station:DISL:KATA:1,2014-11-02T19:30:00Z,30.2583,-88.2131,47.66,1111122 
DISL,ioos:station:DISL:KATA:1,2014-11-02T20:00:00Z,30.2583,-88.2131,45.72,1111122 
DISL,ioos:station:DISL:KATA:1,2014-11-02T20:30:00Z,30.2583,-88.2131,45.59,1111122 
DISL,ioos:station:DISL:KATA:1,2014-11-02T21:00:00Z,30.2583,-88.2131,39.17,1111122 
DISL,ioos:station:DISL:KATA:1,2014-11-02T21:30:00Z,30.2583,-88.2131,40.63,1111122 
DISL,ioos:station:DISL:KATA:1,2014-11-02T22:00:00Z,30.2583,-88.2131,34.83,1111122 
DISL,ioos:station:DISL:KATA:1,2014-11-02T22:30:00Z,30.2583,-88.2131,38.83,1111122 
DISL,ioos:station:DISL:KATA:1,2014-11-02T23:00:00Z,30.2583,-88.2131,36.66,1111122 
DISL,ioos:station:DISL:KATA:1,2014-11-02T23:30:00Z,30.2583,-88.2131,41.41,1111122 
DISL,ioos:station:DISL:KATA:1,2014-11-03T00:00:00Z,30.2583,-88.2131,46.06,1111122 
DISL,ioos:station:DISL:KATA:1,2014-11-03T00:30:00Z,30.2583,-88.2131,41.38,1111122 
DISL,ioos:station:DISL:KATA:1,2014-11-03T01:00:00Z,30.2583,-88.2131,38.97,1111122 
DISL,ioos:station:DISL:KATA:1,2014-11-03T01:30:00Z,30.2583,-88.2131,43.21,1111122 
DISL,ioos:station:DISL:KATA:1,2014-11-03T02:00:00Z,30.2583,-88.2131,39.95,1111122 
DISL,ioos:station:DISL:KATA:1,2014-11-03T02:30:00Z,30.2583,-88.2131,40.43,1111122 
DISL,ioos:station:DISL:KATA:1,2014-11-03T03:00:00Z,30.2583,-88.2131,47.93,1111122 
DISL,ioos:station:DISL:KATA:1,2014-11-03T03:30:00Z,30.2583,-88.2131,49.26,1111122 
DISL,ioos:station:DISL:KATA:1,2014-11-03T04:00:00Z,30.2583,-88.2131,53.64,1111122 
DISL,ioos:station:DISL:KATA:1,2014-11-03T04:30:00Z,30.2583,-88.2131,59.76,1111122 
DISL,ioos:station:DISL:KATA:1,2014-11-03T05:00:00Z,30.2583,-88.2131,63.16,1111122 
DISL,ioos:station:DISL:KATA:1,2014-11-03T05:30:00Z,30.2583,-88.2131,64.86,1111122 
DISL,ioos:station:DISL:KATA:1,2014-11-03T06:00:00Z,30.2583,-88.2131,66.28,1111122 
DISL,ioos:station:DISL:KATA:1,2014-11-03T06:30:00Z,30.2583,-88.2131,64.62,1111122 
DISL,ioos:station:DISL:KATA:1,2014-11-03T07:00:00Z,30.2583,-88.2131,65.6,1111122 
DISL,ioos:station:DISL:KATA:1,2014-11-03T07:30:00Z,30.2583,-88.2131,65.26,1111122 
DISL,ioos:station:DISL:KATA:1,2014-11-03T08:00:00Z,30.2583,-88.2131,68.22,1111122 
DISL,ioos:station:DISL:KATA:1,2014-11-03T08:30:00Z,30.2583,-88.2131,64.41,1111122 
DISL,ioos:station:DISL:KATA:1,2014-11-03T09:00:00Z,30.2583,-88.2131,51.82,1111122 
DISL,ioos:station:DISL:KATA:1,2014-11-03T09:30:00Z,30.2583,-88.2131,59.76,1111122 
DISL,ioos:station:DISL:KATA:1,2014-11-03T10:00:00Z,30.2583,-88.2131,56.23,1111122 
DISL,ioos:station:DISL:KATA:1,2014-11-03T10:30:00Z,30.2583,-88.2131,56.43,1111122 
DISL,ioos:station:DISL:KATA:1,2014-11-03T11:00:00Z,30.2583,-88.2131,55.28,1111122 
DISL,ioos:station:DISL:KATA:1,2014-11-03T11:30:00Z,30.2583,-88.2131,60.03,1111122 
DISL,ioos:station:DISL:KATA:1,2014-11-03T12:00:00Z,30.2583,-88.2131,58.88,1111122 
DISL,ioos:station:DISL:KATA:1,2014-11-03T12:30:00Z,30.2583,-88.2131,55.92,1111122 
DISL,ioos:station:DISL:KATA:1,2014-11-03T13:00:00Z,30.2583,-88.2131,56.63,1111122 
DISL,ioos:station:DISL:KATA:1,2014-11-03T13:30:00Z,30.2583,-88.2131,55.3,1111122 
DISL,ioos:station:DISL:KATA:1,2014-11-03T14:00:00Z,30.2583,-88.2131,56.01,1111122 
DISL,ioos:station:DISL:KATA:1,2014-11-03T14:30:00Z,30.2583,-88.2131,56.96,1111122 
DISL,ioos:station:DISL:KATA:1,2014-11-03T15:00:00Z,30.2583,-88.2131,52.24,1111122 
DISL,ioos:station:DISL:KATA:1,2014-11-03T15:30:00Z,30.2583,-88.2131,53.94,1111122 
DISL,ioos:station:DISL:KATA:1,2014-11-03T16:00:00Z,30.2583,-88.2131,56.58,1111122 
DISL,ioos:station:DISL:KATA:1,2014-11-03T16:30:00Z,30.2583,-88.2131,60.17,1111122 
DISL,ioos:station:DISL:KATA:1,2014-11-03T17:00:00Z,30.2583,-88.2131,61.06,1111122 
DISL,ioos:station:DISL:KATA:1,2014-11-03T17:30:00Z,30.2583,-88.2131,62.44,1111122 
DISL,ioos:station:DISL:KATA:1,2014-11-03T18:00:00Z,30.2583,-88.2131,63.56,1111122 
DISL,ioos:station:DISL:KATA:1,2014-11-03T18:30:00Z,30.2583,-88.2131,64.23,1111122 
DISL,ioos:station:DISL:KATA:1,2014-11-03T19:00:00Z,30.2583,-88.2131,52.83,1111122 
DISL,ioos:station:DISL:KATA:1,2014-11-03T19:30:00Z,30.2583,-88.2131,64.91,1111122 
DISL,ioos:station:DISL:KATA:1,2014-11-03T20:00:00Z,30.2583,-88.2131,69.43,1111122 
DISL,ioos:station:DISL:KATA:1,2014-11-03T20:30:00Z,30.2583,-88.2131,68.85,1111122 
DISL,ioos:station:DISL:KATA:1,2014-11-03T21:00:00Z,30.2583,-88.2131,70.44,1111122 
DISL,ioos:station:DISL:KATA:1,2014-11-03T21:30:00Z,30.2583,-88.2131,72.85,1111122 
DISL,ioos:station:DISL:KATA:1,2014-11-03T22:00:00Z,30.2583,-88.2131,72.49,1111122 
DISL,ioos:station:DISL:KATA:1,2014-11-03T22:30:00Z,30.2583,-88.2131,74.29,1111122 
DISL,ioos:station:DISL:KATA:1,2014-11-03T23:00:00Z,30.2583,-88.2131,75.82,1111122 
DISL,ioos:station:DISL:KATA:1,2014-11-03T23:30:00Z,30.2583,-88.2131,75.83,1111122 
DISL,ioos:station:DISL:KATA:1,2014-11-04T00:00:00Z,30.2583,-88.2131,75.76,1111122 
DISL,ioos:station:DISL:KATA:1,2014-11-04T00:30:00Z,30.2583,-88.2131,75.73,1111122 
DISL,ioos:station:DISL:KATA:1,2014-11-04T01:00:00Z,30.2583,-88.2131,75.7,1111122 
DISL,ioos:station:DISL:KATA:1,2014-11-04T01:30:00Z,30.2583,-88.2131,75.56,1111122 
DISL,ioos:station:DISL:KATA:1,2014-11-04T02:00:00Z,30.2583,-88.2131,76.27,1111122 
DISL,ioos:station:DISL:KATA:1,2014-11-04T02:30:00Z,30.2583,-88.2131,77.83,1111122 
DISL,ioos:station:DISL:KATA:1,2014-11-04T03:00:00Z,30.2583,-88.2131,80.0,1111122 
DISL,ioos:station:DISL:KATA:1,2014-11-04T03:30:00Z,30.2583,-88.2131,81.1,1111122 
DISL,ioos:station:DISL:KATA:1,2014-11-04T04:00:00Z,30.2583,-88.2131,81.9,1111122 
DISL,ioos:station:DISL:KATA:1,2014-11-04T04:30:00Z,30.2583,-88.2131,81.5,1111122 
DISL,ioos:station:DISL:KATA:1,2014-11-04T05:00:00Z,30.2583,-88.2131,79.46,1111122 
DISL,ioos:station:DISL:KATA:1,2014-11-04T05:30:00Z,30.2583,-88.2131,79.02,1111122 
DISL,ioos:station:DISL:KATA:1,2014-11-04T06:00:00Z,30.2583,-88.2131,78.85,1111122 
DISL,ioos:station:DISL:KATA:1,2014-11-04T06:30:00Z,30.2583,-88.2131,76.95,1111122 
DISL,ioos:station:DISL:KATA:1,2014-11-04T07:00:00Z,30.2583,-88.2131,77.33,1111122 
DISL,ioos:station:DISL:KATA:1,2014-11-04T07:30:00Z,30.2583,-88.2131,77.73,1111122 
DISL,ioos:station:DISL:KATA:1,2014-11-04T08:00:00Z,30.2583,-88.2131,76.27,1111122 
DISL,ioos:station:DISL:KATA:1,2014-11-04T08:30:00Z,30.2583,-88.2131,74.98,1111122 
DISL,ioos:station:DISL:KATA:1,2014-11-04T09:00:00Z,30.2583,-88.2131,73.96,1111122 
DISL,ioos:station:DISL:KATA:1,2014-11-04T09:30:00Z,30.2583,-88.2131,71.89,1111122 
DISL,ioos:station:DISL:KATA:1,2014-11-04T10:00:00Z,30.2583,-88.2131,73.73,1111122 
DISL,ioos:station:DISL:KATA:1,2014-11-04T10:30:00Z,30.2583,-88.2131,76.48,1111122 
DISL,ioos:station:DISL:KATA:1,2014-11-04T11:00:00Z,30.2583,-88.2131,77.94,1111122 
DISL,ioos:station:DISL:KATA:1,2014-11-04T11:30:00Z,30.2583,-88.2131,79.43,1111122 
DISL,ioos:station:DISL:KATA:1,2014-11-04T12:00:00Z,30.2583,-88.2131,79.74,1111122 
DISL,ioos:station:DISL:KATA:1,2014-11-04T12:30:00Z,30.2583,-88.2131,80.6,1111122 
DISL,ioos:station:DISL:KATA:1,2014-11-04T13:00:00Z,30.2583,-88.2131,77.6,1111122 
DISL,ioos:station:DISL:KATA:1,2014-11-04T13:30:00Z,30.2583,-88.2131,74.68,1111122 
DISL,ioos:station:DISL:KATA:1,2014-11-04T14:00:00Z,30.2583,-88.2131,74.94,1111122 
DISL,ioos:station:DISL:KATA:1,2014-11-04T14:30:00Z,30.2583,-88.2131,74.26,1111122 
DISL,ioos:station:DISL:KATA:1,2014-11-04T15:00:00Z,30.2583,-88.2131,75.48,1111122 
DISL,ioos:station:DISL:KATA:1,2014-11-04T15:30:00Z,30.2583,-88.2131,74.32,1111122 
DISL,ioos:station:DISL:KATA:1,2014-11-04T16:00:00Z,30.2583,-88.2131,74.11,1111122 
DISL,ioos:station:DISL:KATA:1,2014-11-04T16:30:00Z,30.2583,-88.2131,73.63,1111122 
DISL,ioos:station:DISL:KATA:1,2014-11-04T17:00:00Z,30.2583,-88.2131,75.09,1111122 
DISL,ioos:station:DISL:KATA:1,2014-11-04T17:30:00Z,30.2583,-88.2131,71.39,1111122 
DISL,ioos:station:DISL:KATA:1,2014-11-04T18:00:00Z,30.2583,-88.2131,71.18,1111122 
DISL,ioos:station:DISL:KATA:1,2014-11-04T18:30:00Z,30.2583,-88.2131,71.88,1111122 
DISL,ioos:station:DISL:KATA:1,2014-11-04T19:00:00Z,30.2583,-88.2131,71.68,1111122 
DISL,ioos:station:DISL:KATA:1,2014-11-04T19:30:00Z,30.2583,-88.2131,72.02,1111122 
DISL,ioos:station:DISL:KATA:1,2014-11-04T20:00:00Z,30.2583,-88.2131,72.15,1111122 
DISL,ioos:station:DISL:KATA:1,2014-11-04T20:30:00Z,30.2583,-88.2131,73.75,1111122 
DISL,ioos:station:DISL:KATA:1,2014-11-04T21:00:00Z,30.2583,-88.2131,74.32,1111122 
DISL,ioos:station:DISL:KATA:1,2014-11-04T21:30:00Z,30.2583,-88.2131,74.63,1111122 
DISL,ioos:station:DISL:KATA:1,2014-11-04T22:00:00Z,30.2583,-88.2131,77.85,1111122 
DISL,ioos:station:DISL:KATA:1,2014-11-04T22:30:00Z,30.2583,-88.2131,83.7,1111122 
DISL,ioos:station:DISL:KATA:1,2014-11-04T23:00:00Z,30.2583,-88.2131,85.9,1111122 
DISL,ioos:station:DISL:KATA:1,2014-11-04T23:30:00Z,30.2583,-88.2131,88.3,1111122 
DISL,ioos:station:DISL:KATA:1,2014-11-05T00:00:00Z,30.2583,-88.2131,88.0,1111122 
DISL,ioos:station:DISL:KATA:1,2014-11-05T00:30:00Z,30.2583,-88.2131,88.0,1111122 
DISL,ioos:station:DISL:KATA:1,2014-11-05T01:00:00Z,30.2583,-88.2131,89.1,1111122 
DISL,ioos:station:DISL:KATA:1,2014-11-05T01:30:00Z,30.2583,-88.2131,89.1,1111122 
DISL,ioos:station:DISL:KATA:1,2014-11-05T02:00:00Z,30.2583,-88.2131,89.2,1111122 
DISL,ioos:station:DISL:KATA:1,2014-11-05T02:30:00Z,30.2583,-88.2131,90.4,1111122 
DISL,ioos:station:DISL:KATA:1,2014-11-05T03:00:00Z,30.2583,-88.2131,82.4,1111122 
DISL,ioos:station:DISL:KATA:1,2014-11-05T03:30:00Z,30.2583,-88.2131,77.91,1111122 
DISL,ioos:station:DISL:KATA:1,2014-11-05T04:00:00Z,30.2583,-88.2131,77.27,1111122 
DISL,ioos:station:DISL:KATA:1,2014-11-05T04:30:00Z,30.2583,-88.2131,77.4,1111122 
DISL,ioos:station:DISL:KATA:1,2014-11-05T05:00:00Z,30.2583,-88.2131,76.15,1111122 
DISL,ioos:station:DISL:KATA:1,2014-11-05T05:30:00Z,30.2583,-88.2131,76.35,1111122 
DISL,ioos:station:DISL:KATA:1,2014-11-05T06:00:00Z,30.2583,-88.2131,83.6,1111122 
DISL,ioos:station:DISL:KATA:1,2014-11-05T06:30:00Z,30.2583,-88.2131,79.44,1111122 
DISL,ioos:station:DISL:KATA:1,2014-11-05T07:00:00Z,30.2583,-88.2131,82.8,1111122 
DISL,ioos:station:DISL:KATA:1,2014-11-05T07:30:00Z,30.2583,-88.2131,80.1,1111122 
DISL,ioos:station:DISL:KATA:1,2014-11-05T08:00:00Z,30.2583,-88.2131,79.78,1111122 
DISL,ioos:station:DISL:KATA:1,2014-11-05T08:30:00Z,30.2583,-88.2131,80.9,1111122 
DISL,ioos:station:DISL:KATA:1,2014-11-05T09:00:00Z,30.2583,-88.2131,79.23,1111122 
DISL,ioos:station:DISL:KATA:1,2014-11-05T09:30:00Z,30.2583,-88.2131,78.11,1111122 
DISL,ioos:station:DISL:KATA:1,2014-11-05T10:00:00Z,30.2583,-88.2131,78.59,1111122 
DISL,ioos:station:DISL:KATA:1,2014-11-05T10:30:00Z,30.2583,-88.2131,77.3,1111122 
DISL,ioos:station:DISL:KATA:1,2014-11-05T11:00:00Z,30.2583,-88.2131,77.47,1111122 
DISL,ioos:station:DISL:KATA:1,2014-11-05T11:30:00Z,30.2583,-88.2131,77.88,1111122 
DISL,ioos:station:DISL:KATA:1,2014-11-05T12:00:00Z,30.2583,-88.2131,79.13,1111122 
DISL,ioos:station:DISL:KATA:1,2014-11-05T12:30:00Z,30.2583,-88.2131,79.4,1111122 
DISL,ioos:station:DISL:KATA:1,2014-11-05T13:00:00Z,30.2583,-88.2131,80.1,1111122 
DISL,ioos:station:DISL:KATA:1,2014-11-05T13:30:00Z,30.2583,-88.2131,79.85,1111122 
DISL,ioos:station:DISL:KATA:1,2014-11-05T14:00:00Z,30.2583,-88.2131,79.78,1111122 
DISL,ioos:station:DISL:KATA:1,2014-11-05T14:30:00Z,30.2583,-88.2131,78.02,1111122 
DISL,ioos:station:DISL:KATA:1,2014-11-05T15:00:00Z,30.2583,-88.2131,78.19,1111122 
DISL,ioos:station:DISL:KATA:1,2014-11-05T15:30:00Z,30.2583,-88.2131,77.24,1111122 
DISL,ioos:station:DISL:KATA:1,2014-11-05T16:00:00Z,30.2583,-88.2131,77.78,1111122 
DISL,ioos:station:DISL:KATA:1,2014-11-05T16:30:00Z,30.2583,-88.2131,78.01,1111122 
DISL,ioos:station:DISL:KATA:1,2014-11-05T17:00:00Z,30.2583,-88.2131,77.73,1111122 
DISL,ioos:station:DISL:KATA:1,2014-11-05T17:30:00Z,30.2583,-88.2131,79.42,1111122 
DISL,ioos:station:DISL:KATA:1,2014-11-05T18:00:00Z,30.2583,-88.2131,79.32,1111122 
DISL,ioos:station:DISL:KATA:1,2014-11-05T18:30:00Z,30.2583,-88.2131,80.2,1111122 
DISL,ioos:station:DISL:KATA:1,2014-11-05T19:00:00Z,30.2583,-88.2131,80.7,1111122 
DISL,ioos:station:DISL:KATA:1,2014-11-05T19:30:00Z,30.2583,-88.2131,82.5,1111122 
DISL,ioos:station:DISL:KATA:1,2014-11-05T20:00:00Z,30.2583,-88.2131,83.6,1111122 
DISL,ioos:station:DISL:KATA:1,2014-11-05T20:30:00Z,30.2583,-88.2131,84.1,1111122 
DISL,ioos:station:DISL:KATA:1,2014-11-05T21:00:00Z,30.2583,-88.2131,83.7,1111122 
DISL,ioos:station:DISL:KATA:1,2014-11-05T21:30:00Z,30.2583,-88.2131,84.2,1111122 
DISL,ioos:station:DISL:KATA:1,2014-11-05T22:00:00Z,30.2583,-88.2131,86.8,1111122 
DISL,ioos:station:DISL:KATA:1,2014-11-05T22:30:00Z,30.2583,-88.2131,87.5,1111122 
DISL,ioos:station:DISL:KATA:1,2014-11-05T23:00:00Z,30.2583,-88.2131,88.5,1111122 
DISL,ioos:station:DISL:KATA:1,2014-11-05T23:30:00Z,30.2583,-88.2131,89.5,1111122 
DISL,ioos:station:DISL:KATA:1,2014-11-06T00:00:00Z,30.2583,-88.2131,91.7,1111122 
DISL,ioos:station:DISL:KATA:1,2014-11-06T00:30:00Z,30.2583,-88.2131,90.4,1111122 
DISL,ioos:station:DISL:KATA:1,2014-11-06T01:00:00Z,30.2583,-88.2131,90.1,1111122 
DISL,ioos:station:DISL:KATA:1,2014-11-06T01:30:00Z,30.2583,-88.2131,91.0,1111122 
DISL,ioos:station:DISL:KATA:1,2014-11-06T02:00:00Z,30.2583,-88.2131,90.5,1111122 
DISL,ioos:station:DISL:KATA:1,2014-11-06T02:30:00Z,30.2583,-88.2131,91.7,1111122 
DISL,ioos:station:DISL:KATA:1,2014-11-06T03:00:00Z,30.2583,-88.2131,91.7,1111122 
DISL,ioos:station:DISL:KATA:1,2014-11-06T03:30:00Z,30.2583,-88.2131,92.4,1111122 
DISL,ioos:station:DISL:KATA:1,2014-11-06T04:00:00Z,30.2583,-88.2131,94.1,1111122 
DISL,ioos:station:DISL:KATA:1,2014-11-06T04:30:00Z,30.2583,-88.2131,94.0,1111122 
DISL,ioos:station:DISL:KATA:1,2014-11-06T05:00:00Z,30.2583,-88.2131,94.6,1111122 
DISL,ioos:station:DISL:KATA:1,2014-11-06T05:30:00Z,30.2583,-88.2131,95.4,1111122 
DISL,ioos:station:DISL:KATA:1,2014-11-06T06:00:00Z,30.2583,-88.2131,94.2,1111122 
DISL,ioos:station:DISL:KATA:1,2014-11-06T06:30:00Z,30.2583,-88.2131,93.8,1111122 
DISL,ioos:station:DISL:KATA:1,2014-11-06T07:00:00Z,30.2583,-88.2131,93.9,1111122 
DISL,ioos:station:DISL:KATA:1,2014-11-06T07:30:00Z,30.2583,-88.2131,94.3,1111122 
DISL,ioos:station:DISL:KATA:1,2014-11-06T08:00:00Z,30.2583,-88.2131,94.4,1111122 
DISL,ioos:station:DISL:KATA:1,2014-11-06T08:30:00Z,30.2583,-88.2131,94.4,1111122 
DISL,ioos:station:DISL:KATA:1,2014-11-06T09:00:00Z,30.2583,-88.2131,94.3,1111122 
DISL,ioos:station:DISL:KATA:1,2014-11-06T09:30:00Z,30.2583,-88.2131,94.4,1111122 
DISL,ioos:station:DISL:KATA:1,2014-11-06T10:00:00Z,30.2583,-88.2131,94.4,1111122 
DISL,ioos:station:DISL:KATA:1,2014-11-06T10:30:00Z,30.2583,-88.2131,94.4,1111122 
DISL,ioos:station:DISL:KATA:1,2014-11-06T11:00:00Z,30.2583,-88.2131,94.3,1111122 
DISL,ioos:station:DISL:KATA:1,2014-11-06T11:30:00Z,30.2583,-88.2131,94.1,1111122 
DISL,ioos:station:DISL:KATA:1,2014-11-06T12:00:00Z,30.2583,-88.2131,94.2,1111122 
DISL,ioos:station:DISL:KATA:1,2014-11-06T12:30:00Z,30.2583,-88.2131,94.2,1111122 
DISL,ioos:station:DISL:KATA:1,2014-11-06T13:00:00Z,30.2583,-88.2131,94.0,1111122 
DISL,ioos:station:DISL:KATA:1,2014-11-06T13:30:00Z,30.2583,-88.2131,93.8,1111122 
DISL,ioos:station:DISL:KATA:1,2014-11-06T14:00:00Z,30.2583,-88.2131,93.5,1111122 
DISL,ioos:station:DISL:KATA:1,2014-11-06T14:30:00Z,30.2583,-88.2131,92.2,1111122 
DISL,ioos:station:DISL:KATA:1,2014-11-06T15:00:00Z,30.2583,-88.2131,91.8,1111122 
DISL,ioos:station:DISL:KATA:1,2014-11-06T15:30:00Z,30.2583,-88.2131,90.0,1111122 
DISL,ioos:station:DISL:KATA:1,2014-11-06T16:00:00Z,30.2583,-88.2131,90.8,1111122 
DISL,ioos:station:DISL:KATA:1,2014-11-06T16:30:00Z,30.2583,-88.2131,90.8,1111122 
DISL,ioos:station:DISL:KATA:1,2014-11-06T17:00:00Z,30.2583,-88.2131,91.4,1111122 
DISL,ioos:station:DISL:KATA:1,2014-11-06T17:30:00Z,30.2583,-88.2131,89.7,1111122 
DISL,ioos:station:DISL:KATA:1,2014-11-06T18:00:00Z,30.2583,-88.2131,90.8,1111122 
DISL,ioos:station:DISL:KATA:1,2014-11-06T18:30:00Z,30.2583,-88.2131,90.9,1111122 
DISL,ioos:station:DISL:KATA:1,2014-11-06T19:00:00Z,30.2583,-88.2131,91.3,1111122 
DISL,ioos:station:DISL:KATA:1,2014-11-06T19:30:00Z,30.2583,-88.2131,85.9,1111122 
DISL,ioos:station:DISL:KATA:1,2014-11-06T20:00:00Z,30.2583,-88.2131,84.1,1111122 
DISL,ioos:station:DISL:KATA:1,2014-11-06T20:30:00Z,30.2583,-88.2131,86.5,1111122 
DISL,ioos:station:DISL:KATA:1,2014-11-06T21:00:00Z,30.2583,-88.2131,86.1,1111122 
DISL,ioos:station:DISL:KATA:1,2014-11-06T21:30:00Z,30.2583,-88.2131,84.2,1111122 
DISL,ioos:station:DISL:KATA:1,2014-11-06T22:00:00Z,30.2583,-88.2131,85.2,1111122 
DISL,ioos:station:DISL:KATA:1,2014-11-06T22:30:00Z,30.2583,-88.2131,81.8,1111122 
DISL,ioos:station:DISL:KATA:1,2014-11-06T23:00:00Z,30.2583,-88.2131,81.4,1111122 
DISL,ioos:station:DISL:KATA:1,2014-11-06T23:30:00Z,30.2583,-88.2131,81.2,1111122 
DISL,ioos:station:DISL:KATA:1,2014-11-07T00:00:00Z,30.2583,-88.2131,82.0,1111122 